Kivalina, AK

6:45 PM AKDT on April 27, 2017 (GMT -0800)
Kivalina

Weather History for PAVL - July, 2013

Change the Weather History Date:

Friday, July 5, 2013

  Actual Average (PAWN) Record (PAWN)
Temperature  
Mean Temperature 47 °F -  
Max Temperature 50 °F 59 °F 80 °F (2008)
Min Temperature 44 °F 42 °F 35 °F (2000)
Degree Days  
Heating Degree Days 18    
Moisture  
Dew Point 45 °F    
Average Humidity 95    
Maximum Humidity 100    
Minimum Humidity 86    
Precipitation  
Precipitation 0.12 in - - ()
Sea Level Pressure  
Sea Level Pressure 29.82 in    
Wind  
Wind Speed 12 mph (SSE)    
Max Wind Speed 20 mph    
Max Gust Speed 18 mph    
Visibility 9 miles    
Events Rain    
Averages and records for this station are not official NWS values.
T = Trace of Precipitation, MM = Missing Value Source: NWS Daily Summary

Daily Weather History Graph

Daily Weather History Graph

Search for Another Location

Airport or City:

Trip Planner

Search our weather history database for the weather conditions in past years. The results will help you decide how hot, cold, wet, or windy it might be!

Date:

Astronomy

Jul. 05, 2013 Rise Set
Actual Time 3:35 AM AKDT 2:30 AM AKDT
Civil Twilight Sun does not set Sun does not set
Nautical Twilight Sun does not set Sun does not set
Astronomical Twilight Sun does not set Sun does not set
Moon 2:40 AM AKDT (7/5) 11:42 PM AKDT (7/5)
Length of Visible Light 24h 00m
Length of Day
22h 55m
Waning Crescent, 5% of the Moon is Illuminated
Jul 5
Waning Crescent
Jul 7
New
Jul 15
First Quarter
Jul 22
Full
Jul 29
Last Quarter

Hourly Weather History & Observations

Time (AKDT) Temp. Windchill Dew Point Humidity Pressure Visibility Wind Dir Wind Speed Gust Speed Precip Events Conditions
12:53 AM 45.0 °F 38.9 °F 43.0 °F 93% 29.79 in 10.0 mi SSW 12.7 mph - 0.00 in   Overcast
1:53 AM 46.0 °F 40.6 °F 43.0 °F 89% 29.81 in 10.0 mi South 11.5 mph - N/A   Overcast
2:19 AM 46.4 °F 41.5 °F 42.8 °F 87% 29.82 in 10.0 mi South 10.4 mph - N/A   Overcast
2:53 AM 46.0 °F 41.4 °F 43.0 °F 89% 29.83 in 10.0 mi South 9.2 mph - N/A   Overcast
3:53 AM 46.0 °F 41.0 °F 42.1 °F 86% 29.83 in 10.0 mi South 10.4 mph - 0.00 in   Overcast
4:53 AM 46.0 °F 42.5 °F 42.1 °F 86% 29.82 in 10.0 mi SE 6.9 mph - 0.00 in   Overcast
5:04 AM 46.4 °F 42.4 °F 42.8 °F 87% 29.82 in 10.0 mi SE 8.1 mph - 0.00 in Rain Light Rain
5:15 AM 46.4 °F 41.9 °F 42.8 °F 87% 29.82 in 10.0 mi SE 9.2 mph - 0.00 in Rain Light Rain
5:32 AM 46.4 °F 42.4 °F 42.8 °F 87% 29.82 in 10.0 mi SSE 8.1 mph - 0.00 in   Overcast
5:53 AM 45.0 °F 41.8 °F 43.0 °F 93% 29.82 in 10.0 mi ESE 5.8 mph - 0.00 in   Overcast
6:53 AM 45.0 °F 40.6 °F 44.1 °F 97% 29.81 in 10.0 mi East 8.1 mph - N/A   Overcast
7:17 AM 44.6 °F 39.7 °F 44.6 °F 100% 29.81 in 10.0 mi East 9.2 mph - N/A   Overcast
7:30 AM 46.4 °F 42.4 °F 44.6 °F 93% 29.81 in 10.0 mi East 8.1 mph - N/A   Overcast
7:53 AM 46.0 °F 41.0 °F 44.1 °F 93% 29.82 in 9.0 mi SE 10.4 mph - 0.00 in Rain Light Rain
8:04 AM 46.4 °F 41.5 °F 42.8 °F 87% 29.81 in 10.0 mi SE 10.4 mph 18.4 mph 0.00 in Rain Light Rain
8:18 AM 46.4 °F 42.4 °F 44.6 °F 93% 29.81 in 4.0 mi ESE 8.1 mph - 0.00 in Rain Light Rain
8:27 AM 46.4 °F 41.1 °F 44.6 °F 93% 29.81 in 2.5 mi SE 11.5 mph - 0.01 in Rain Light Rain
8:39 AM 46.4 °F 41.5 °F 44.6 °F 93% 29.81 in 3.0 mi ESE 10.4 mph - 0.03 in Rain Light Rain
8:53 AM 46.9 °F - 45.0 °F 93% 29.82 in 5.0 mi SE 13.8 mph - 0.03 in Rain Light Rain
9:28 AM 46.4 °F 39.8 °F 46.4 °F 100% 29.81 in 9.0 mi SSE 16.1 mph - 0.01 in Rain Light Rain
9:53 AM 46.9 °F - 46.0 °F 97% 29.81 in 9.0 mi SSE 12.7 mph - 0.01 in Rain Light Rain
10:28 AM 46.4 °F 39.5 °F 46.4 °F 100% 29.81 in 3.0 mi SSE 17.3 mph - 0.02 in Rain Light Rain
10:36 AM 46.4 °F 39.8 °F 46.4 °F 100% 29.81 in 5.0 mi SSE 16.1 mph - 0.02 in Rain Light Rain
10:53 AM 46.9 °F - 46.0 °F 97% 29.81 in 8.0 mi South 19.6 mph - 0.03 in Rain Light Rain
11:03 AM 46.4 °F 39.0 °F 46.4 °F 100% 29.81 in 8.0 mi South 19.6 mph - 0.00 in Rain Light Rain
11:53 AM 46.9 °F - 46.0 °F 97% 29.82 in 6.0 mi South 17.3 mph - 0.01 in Rain Light Rain
12:53 PM 48.0 °F - 46.9 °F 96% 29.83 in 8.0 mi South 13.8 mph - 0.01 in Rain Light Rain
1:53 PM 48.0 °F - 46.9 °F 96% 29.83 in 8.0 mi South 13.8 mph - 0.01 in Rain Light Rain
2:20 PM 48.2 °F - 46.4 °F 93% 29.83 in 9.0 mi South 13.8 mph - 0.00 in Rain Light Rain
2:53 PM 48.9 °F - 48.0 °F 97% 29.83 in 10.0 mi SSE 16.1 mph - 0.00 in Rain Light Rain
3:53 PM 50.0 °F - 48.9 °F 96% 29.83 in 10.0 mi SSE 16.1 mph - 0.01 in Rain Light Rain
4:53 PM 50.0 °F - 48.0 °F 93% 29.82 in 10.0 mi SSE 16.1 mph - 0.00 in Rain Light Rain
5:53 PM 50.0 °F - 48.9 °F 96% 29.81 in 10.0 mi SSE 13.8 mph - 0.00 in   Overcast
6:51 PM 48.2 °F - 48.2 °F 100% 29.80 in 10.0 mi SSE 15.0 mph - 0.00 in Rain Light Rain
6:53 PM 48.9 °F - 48.0 °F 97% 29.81 in 9.0 mi SSE 15.0 mph - 0.00 in Rain Light Rain
7:25 PM 48.2 °F - 48.2 °F 100% 29.80 in 9.0 mi SSE 16.1 mph - 0.00 in Rain Light Rain
7:53 PM 46.9 °F - 46.9 °F 100% 29.81 in 8.0 mi South 15.0 mph - 0.01 in Rain Light Rain
8:20 PM 46.4 °F 40.1 °F 46.4 °F 100% 29.81 in 7.0 mi South 15.0 mph - 0.00 in Rain Light Rain
8:53 PM 46.0 °F 39.9 °F 46.0 °F 100% 29.82 in 8.0 mi SSW 13.8 mph - 0.00 in Rain Light Rain
9:53 PM 46.0 °F 39.9 °F 46.0 °F 100% 29.83 in 9.0 mi South 13.8 mph - 0.00 in   Overcast
10:42 PM 46.4 °F 41.1 °F 46.4 °F 100% 29.84 in 10.0 mi South 11.5 mph - N/A   Overcast
10:53 PM 46.0 °F 40.6 °F 46.0 °F 100% 29.85 in 10.0 mi South 11.5 mph - N/A   Overcast
11:00 PM 46.4 °F 41.1 °F 46.4 °F 100% 29.85 in 10.0 mi South 11.5 mph - N/A   Overcast
11:24 PM 46.4 °F 40.7 °F 46.4 °F 100% 29.85 in 10.0 mi South 12.7 mph - N/A   Overcast
11:27 PM 46.4 °F 41.1 °F 46.4 °F 100% 29.86 in 10.0 mi South 11.5 mph - N/A   Overcast
11:53 PM 46.9 °F - 46.0 °F 97% 29.86 in 9.0 mi South 11.5 mph - 0.00 in Rain Light Rain